BOV001 MPTO-SLVR

Flight info

Callsign BOV001
Flight time 5h 19m
Altitude 33000
Route DANDA1A DANDA DCT IRATA UN420 NIRBU/N0458F350 UN420 VIR
Aircraft B738/M-SDE2E3FGHIRWXY/LB1

Departure

Time 2026-05-07 03:31
Airport Tocumen International Airport (MPTO)

Arrival

Time 2026-05-07 08:50
Airport Viru Viru International Airport (SLVR)
Time Latitude Longitude Altitude Speed Heading
2026-05-07 03:31 9.08667 -79.33097 2843 ft 191 kts 99°
2026-05-07 03:31 9.08165 -79.31375 3419 ft 193 kts 104°
2026-05-07 03:31 9.07930 -79.30475 3605 ft 207 kts 102°
2026-05-07 03:32 9.07600 -79.28991 3729 ft 224 kts 101°
2026-05-07 03:32 9.07297 -79.27378 3849 ft 243 kts 99°
2026-05-07 03:32 9.07019 -79.25640 4068 ft 256 kts 98°
2026-05-07 03:32 9.06757 -79.23841 4484 ft 260 kts 97°
2026-05-07 03:33 9.06503 -79.22024 4962 ft 262 kts 98°
2026-05-07 03:33 9.05900 -79.20286 5282 ft 270 kts 123°
2026-05-07 03:33 9.04502 -79.19046 5738 ft 270 kts 154°
2026-05-07 03:33 9.02651 -79.18642 5993 ft 280 kts 185°
2026-05-07 03:34 9.00776 -79.19212 6334 ft 284 kts 203°
2026-05-07 03:34 8.98973 -79.20056 6701 ft 287 kts 205°
2026-05-07 03:34 8.97166 -79.20929 7072 ft 288 kts 204°
2026-05-07 03:34 8.95349 -79.21803 7436 ft 290 kts 204°
2026-05-07 03:35 8.93515 -79.22676 7798 ft 292 kts 204°
2026-05-07 03:35 8.92890 -79.22972 7920 ft 292 kts 204°
2026-05-07 03:35 8.91431 -79.23660 8198 ft 294 kts 203°
2026-05-07 03:35 8.89593 -79.24521 8551 ft 295 kts 203°
2026-05-07 03:36 8.87722 -79.25395 8894 ft 297 kts 203°
2026-05-07 03:36 8.85837 -79.26274 9245 ft 298 kts 203°
2026-05-07 03:36 8.83948 -79.27155 9595 ft 300 kts 203°
2026-05-07 03:36 8.82044 -79.28041 9903 ft 302 kts 202°
2026-05-07 03:37 8.80117 -79.28937 10054 ft 310 kts 202°
2026-05-07 03:37 8.78125 -79.29863 10128 ft 319 kts 202°
2026-05-07 03:37 8.76082 -79.30813 10188 ft 327 kts 203°
2026-05-07 03:37 8.73991 -79.31786 10242 ft 334 kts 202°
2026-05-07 03:38 8.71861 -79.32778 10287 ft 340 kts 203°
2026-05-07 03:38 8.69697 -79.33786 10322 ft 345 kts 203°
2026-05-07 03:38 8.67502 -79.34808 10352 ft 349 kts 203°
2026-05-07 03:38 8.65313 -79.35827 10389 ft 352 kts 203°
2026-05-07 03:39 8.63078 -79.36865 10439 ft 354 kts 202°
2026-05-07 03:39 8.60699 -79.37552 10494 ft 351 kts 181°
2026-05-07 03:39 8.58328 -79.37323 10608 ft 346 kts 162°
2026-05-07 03:39 8.56121 -79.36388 10720 ft 344 kts 152°
2026-05-07 03:40 8.53989 -79.35280 10784 ft 345 kts 150°
2026-05-07 03:40 8.51868 -79.34137 10856 ft 346 kts 150°
2026-05-07 03:40 8.49748 -79.32987 10939 ft 346 kts 150°
2026-05-07 03:40 8.47623 -79.31841 11024 ft 346 kts 150°
2026-05-07 03:41 8.45492 -79.30700 11116 ft 346 kts 150°
2026-05-07 03:41 8.43381 -79.29577 11180 ft 347 kts 150°
2026-05-07 03:41 8.41243 -79.28445 11262 ft 347 kts 150°
2026-05-07 03:41 8.39101 -79.27314 11332 ft 348 kts 150°
2026-05-07 03:42 8.36953 -79.26182 11407 ft 348 kts 150°
2026-05-07 03:42 8.34807 -79.25052 11476 ft 348 kts 150°
2026-05-07 03:42 8.32654 -79.23920 11551 ft 348 kts 150°
2026-05-07 03:42 8.30503 -79.22789 11608 ft 349 kts 150°
2026-05-07 03:43 8.28342 -79.21653 11682 ft 349 kts 150°
2026-05-07 03:43 8.26184 -79.20520 11753 ft 349 kts 150°
2026-05-07 03:43 8.24027 -79.19386 11815 ft 350 kts 150°
2026-05-07 03:43 8.21866 -79.18251 11882 ft 350 kts 150°
2026-05-07 03:44 8.19741 -79.17135 11965 ft 349 kts 150°
2026-05-07 03:44 8.17585 -79.16003 12043 ft 349 kts 150°
2026-05-07 03:44 8.15428 -79.14870 12109 ft 349 kts 150°
2026-05-07 03:44 8.13272 -79.13738 12171 ft 350 kts 150°
2026-05-07 03:45 8.11112 -79.12604 12220 ft 350 kts 150°
2026-05-07 03:45 8.08955 -79.11471 12295 ft 350 kts 150°
2026-05-07 03:45 8.06794 -79.10337 12357 ft 350 kts 150°
2026-05-07 03:45 8.04632 -79.09202 12416 ft 350 kts 150°
2026-05-07 03:46 8.02463 -79.08064 12460 ft 350 kts 150°
2026-05-07 03:46 8.00298 -79.06928 12514 ft 351 kts 150°
2026-05-07 03:46 7.98157 -79.05805 12552 ft 351 kts 150°
2026-05-07 03:46 7.95984 -79.04665 12603 ft 351 kts 150°
2026-05-07 03:47 7.93814 -79.03527 12655 ft 351 kts 150°
2026-05-07 03:47 7.91641 -79.02387 12703 ft 351 kts 150°
2026-05-07 03:47 7.89471 -79.01249 12746 ft 351 kts 150°
2026-05-07 03:47 7.87297 -79.00109 12795 ft 351 kts 150°
2026-05-07 03:48 7.85156 -78.98987 12848 ft 351 kts 150°
2026-05-07 03:48 7.82981 -78.97846 12882 ft 352 kts 150°
2026-05-07 03:48 7.80806 -78.96707 12909 ft 352 kts 150°
2026-05-07 03:48 7.78632 -78.95567 12955 ft 352 kts 150°
2026-05-07 03:49 7.76457 -78.94427 12994 ft 352 kts 150°
2026-05-07 03:49 7.74284 -78.93289 13043 ft 352 kts 150°
2026-05-07 03:49 7.72104 -78.92147 13064 ft 353 kts 150°
2026-05-07 03:49 7.69926 -78.91006 13100 ft 353 kts 150°
2026-05-07 03:50 7.67746 -78.89864 13133 ft 353 kts 150°
2026-05-07 03:50 7.65564 -78.88721 13160 ft 353 kts 150°
2026-05-07 03:50 7.63383 -78.87579 13200 ft 353 kts 150°
2026-05-07 03:50 7.61230 -78.86451 13226 ft 353 kts 150°
2026-05-07 03:51 7.59050 -78.85310 13251 ft 353 kts 150°
2026-05-07 03:51 7.56870 -78.84168 13289 ft 353 kts 150°
2026-05-07 03:51 7.54687 -78.83026 13321 ft 353 kts 150°
2026-05-07 03:51 7.52495 -78.81878 13350 ft 354 kts 150°
2026-05-07 03:52 7.50310 -78.80735 13372 ft 354 kts 150°
2026-05-07 03:52 7.48144 -78.79568 13413 ft 353 kts 148°
2026-05-07 03:52 7.46024 -78.78318 13431 ft 353 kts 147°
2026-05-07 03:52 7.43924 -78.77035 13469 ft 352 kts 146°
2026-05-07 03:53 7.41832 -78.75747 13483 ft 353 kts 146°
2026-05-07 03:53 7.39735 -78.74457 13509 ft 353 kts 146°
2026-05-07 03:53 7.37669 -78.73191 13526 ft 353 kts 146°
2026-05-07 03:53 7.35567 -78.71908 13549 ft 353 kts 146°
2026-05-07 03:54 7.33468 -78.70631 13579 ft 353 kts 146°
2026-05-07 03:54 7.31367 -78.69355 13614 ft 352 kts 146°
2026-05-07 03:54 7.29269 -78.68082 13656 ft 352 kts 146°
2026-05-07 03:54 7.27172 -78.66811 13687 ft 352 kts 146°
2026-05-07 03:55 7.25070 -78.65536 13705 ft 352 kts 146°
2026-05-07 03:55 7.22966 -78.64262 13727 ft 352 kts 146°
2026-05-07 03:55 7.20865 -78.62989 13759 ft 352 kts 146°
2026-05-07 03:55 7.18769 -78.61720 13785 ft 352 kts 146°
2026-05-07 03:56 7.16667 -78.60446 13797 ft 352 kts 146°
2026-05-07 03:56 7.14563 -78.59172 13825 ft 352 kts 146°
2026-05-07 03:56 7.12457 -78.57897 13850 ft 352 kts 146°
2026-05-07 03:56 7.10359 -78.56627 13877 ft 352 kts 146°
2026-05-07 03:57 7.08285 -78.55371 13890 ft 353 kts 146°
2026-05-07 03:57 7.06176 -78.54094 13906 ft 353 kts 146°
2026-05-07 03:57 7.04071 -78.52820 13928 ft 353 kts 146°
2026-05-07 03:57 7.01965 -78.51545 13952 ft 353 kts 146°
2026-05-07 03:58 6.99863 -78.50274 13978 ft 353 kts 146°
2026-05-07 03:58 6.97759 -78.49001 13985 ft 353 kts 146°
2026-05-07 03:58 6.95650 -78.47724 14007 ft 353 kts 146°
2026-05-07 03:58 6.93541 -78.46449 14020 ft 353 kts 146°
2026-05-07 03:59 6.91436 -78.45175 14037 ft 353 kts 146°
2026-05-07 03:59 6.89329 -78.43901 14059 ft 353 kts 146°
2026-05-07 03:59 6.87222 -78.42626 14079 ft 353 kts 146°
2026-05-07 03:59 6.85142 -78.41368 14087 ft 354 kts 146°
2026-05-07 04:00 6.83028 -78.40090 14106 ft 354 kts 146°
2026-05-07 04:00 6.80917 -78.38813 14121 ft 354 kts 146°
2026-05-07 04:00 6.78808 -78.37538 14143 ft 354 kts 146°
2026-05-07 04:00 6.76701 -78.36264 14157 ft 354 kts 146°
2026-05-07 04:01 6.74587 -78.34986 14172 ft 354 kts 146°
2026-05-07 04:01 6.72475 -78.33710 14187 ft 354 kts 146°
2026-05-07 04:01 6.70362 -78.32432 14210 ft 354 kts 146°
2026-05-07 04:01 6.68258 -78.31157 14227 ft 353 kts 146°
2026-05-07 04:02 6.66175 -78.29895 14233 ft 354 kts 146°
2026-05-07 04:02 6.64065 -78.28615 14248 ft 354 kts 146°
2026-05-07 04:02 6.61959 -78.27339 14263 ft 354 kts 146°
2026-05-07 04:02 6.59846 -78.26058 14267 ft 354 kts 146°
2026-05-07 04:03 6.57738 -78.24780 14284 ft 354 kts 146°
2026-05-07 04:03 6.55625 -78.23499 14300 ft 354 kts 146°
2026-05-07 04:03 6.53514 -78.22220 14311 ft 354 kts 146°
2026-05-07 04:03 6.51401 -78.20939 14326 ft 354 kts 146°
2026-05-07 04:04 6.49286 -78.19657 14343 ft 354 kts 146°
2026-05-07 04:04 6.47170 -78.18375 14358 ft 354 kts 146°
2026-05-07 04:04 6.45057 -78.17095 14362 ft 355 kts 146°
2026-05-07 04:04 6.42968 -78.15830 14375 ft 355 kts 146°
2026-05-07 04:05 6.40853 -78.14549 14414 ft 354 kts 146°
2026-05-07 04:05 6.38746 -78.13273 14448 ft 354 kts 146°
2026-05-07 04:05 6.36638 -78.11997 14461 ft 354 kts 146°
2026-05-07 04:05 6.34527 -78.10718 14477 ft 354 kts 146°
2026-05-07 04:06 6.32414 -78.09439 14492 ft 354 kts 146°
2026-05-07 04:06 6.30303 -78.08161 14515 ft 354 kts 146°
2026-05-07 04:06 6.28189 -78.06881 14531 ft 354 kts 146°
2026-05-07 04:06 6.26077 -78.05603 14550 ft 355 kts 146°
2026-05-07 04:07 6.23961 -78.04322 14564 ft 355 kts 146°
2026-05-07 04:07 6.21847 -78.03043 14586 ft 355 kts 146°
2026-05-07 04:07 6.19736 -78.01765 14600 ft 355 kts 146°
2026-05-07 04:07 6.17616 -78.00483 14615 ft 355 kts 146°
2026-05-07 04:08 6.15500 -77.99203 14625 ft 355 kts 146°
2026-05-07 04:08 6.13383 -77.97922 14641 ft 355 kts 146°
2026-05-07 04:08 6.11265 -77.96640 14652 ft 355 kts 146°
2026-05-07 04:08 6.09144 -77.95357 14664 ft 356 kts 146°
2026-05-07 04:09 6.07053 -77.94093 14677 ft 356 kts 146°
2026-05-07 04:09 6.04930 -77.92809 14694 ft 356 kts 146°
2026-05-07 04:09 6.02807 -77.91526 14712 ft 356 kts 146°
2026-05-07 04:09 6.00687 -77.90244 14721 ft 356 kts 146°
2026-05-07 04:10 5.98560 -77.88958 14741 ft 356 kts 146°
2026-05-07 04:10 5.96435 -77.87673 14755 ft 356 kts 146°
2026-05-07 04:10 5.94314 -77.86392 14764 ft 356 kts 146°
2026-05-07 04:10 5.92187 -77.85106 14770 ft 356 kts 146°
2026-05-07 04:11 5.90086 -77.83836 14791 ft 357 kts 146°
2026-05-07 04:11 5.87956 -77.82549 14804 ft 357 kts 146°
2026-05-07 04:11 5.85832 -77.81266 14810 ft 357 kts 146°
2026-05-07 04:11 5.83701 -77.79978 14824 ft 357 kts 146°
2026-05-07 04:12 5.81575 -77.78694 14841 ft 357 kts 146°
2026-05-07 04:12 5.79443 -77.77406 14851 ft 357 kts 146°
2026-05-07 04:12 5.77316 -77.76121 14868 ft 357 kts 146°
2026-05-07 04:12 5.75185 -77.74834 14874 ft 357 kts 146°
2026-05-07 04:13 5.73056 -77.73549 14887 ft 357 kts 146°
2026-05-07 04:13 5.70922 -77.72260 14895 ft 358 kts 146°
2026-05-07 04:13 5.68788 -77.70972 14908 ft 358 kts 147°
2026-05-07 04:13 5.66654 -77.69684 14916 ft 358 kts 146°
2026-05-07 04:14 5.64520 -77.68395 14925 ft 358 kts 146°
2026-05-07 04:14 5.62386 -77.67107 14932 ft 358 kts 147°
2026-05-07 04:14 5.60251 -77.65818 14944 ft 358 kts 147°
2026-05-07 04:14 5.58114 -77.64528 14953 ft 358 kts 147°
2026-05-07 04:15 5.55972 -77.63236 14966 ft 358 kts 147°
2026-05-07 04:15 5.53835 -77.61946 14975 ft 359 kts 147°
2026-05-07 04:15 5.51694 -77.60655 14992 ft 359 kts 147°
2026-05-07 04:15 5.49581 -77.59380 15024 ft 358 kts 147°
2026-05-07 04:16 5.47447 -77.58092 15051 ft 358 kts 147°
2026-05-07 04:16 5.45312 -77.56805 15062 ft 358 kts 147°
2026-05-07 04:16 5.43172 -77.55514 15074 ft 358 kts 147°
2026-05-07 04:16 5.41036 -77.54225 15088 ft 359 kts 147°
2026-05-07 04:17 5.38894 -77.52933 15106 ft 359 kts 147°
2026-05-07 04:17 5.36753 -77.51642 15122 ft 359 kts 147°
2026-05-07 04:17 5.34613 -77.50352 15142 ft 359 kts 147°
2026-05-07 04:17 5.32469 -77.49060 15147 ft 359 kts 147°
2026-05-07 04:18 5.30328 -77.47769 15163 ft 359 kts 147°
2026-05-07 04:18 5.28189 -77.46479 15180 ft 359 kts 147°
2026-05-07 04:18 5.26045 -77.45187 15200 ft 359 kts 147°
2026-05-07 04:18 5.23900 -77.43894 15207 ft 359 kts 147°
2026-05-07 04:19 5.21754 -77.42601 15215 ft 360 kts 147°
2026-05-07 04:19 5.19636 -77.41325 15226 ft 360 kts 147°
2026-05-07 04:19 5.17488 -77.40030 15238 ft 360 kts 147°
2026-05-07 04:19 5.15344 -77.38738 15247 ft 360 kts 147°
2026-05-07 04:20 5.13198 -77.37445 15258 ft 360 kts 147°
2026-05-07 04:20 5.11048 -77.36150 15272 ft 360 kts 147°
2026-05-07 04:20 5.08899 -77.34856 15285 ft 360 kts 147°
2026-05-07 04:21 5.05325 -77.32703 15302 ft 360 kts 147°
2026-05-07 04:21 5.03171 -77.31406 15319 ft 360 kts 147°
2026-05-07 04:21 5.01021 -77.30111 15341 ft 360 kts 147°
2026-05-07 04:21 4.98869 -77.28815 15345 ft 360 kts 147°
2026-05-07 04:22 4.96721 -77.27522 15362 ft 360 kts 147°
2026-05-07 04:22 4.94573 -77.26228 15375 ft 360 kts 147°
2026-05-07 04:22 4.92425 -77.24935 15388 ft 360 kts 147°
2026-05-07 04:22 4.90274 -77.23641 15394 ft 361 kts 147°
2026-05-07 04:23 4.88122 -77.22345 15404 ft 361 kts 147°
2026-05-07 04:23 4.85968 -77.21049 15412 ft 361 kts 147°
2026-05-07 04:23 4.83816 -77.19754 15432 ft 361 kts 147°
2026-05-07 04:23 4.81659 -77.18456 15457 ft 361 kts 147°
2026-05-07 04:24 4.79536 -77.17178 15470 ft 360 kts 147°
2026-05-07 04:24 4.77386 -77.15884 15475 ft 361 kts 147°
2026-05-07 04:24 4.75233 -77.14589 15479 ft 361 kts 147°
2026-05-07 04:24 4.73080 -77.13294 15491 ft 361 kts 147°
2026-05-07 04:25 4.70920 -77.11995 15502 ft 361 kts 147°
2026-05-07 04:25 4.68767 -77.10700 15515 ft 361 kts 147°
2026-05-07 04:25 4.66615 -77.09405 15522 ft 361 kts 147°
2026-05-07 04:25 4.64459 -77.08108 15533 ft 361 kts 147°
2026-05-07 04:26 4.62309 -77.06815 15551 ft 361 kts 147°
2026-05-07 04:26 4.60150 -77.05517 15586 ft 360 kts 147°
2026-05-07 04:26 4.58004 -77.04226 15615 ft 360 kts 147°
2026-05-07 04:26 4.55880 -77.02949 15629 ft 360 kts 147°
2026-05-07 04:27 4.53730 -77.01657 15645 ft 360 kts 147°
2026-05-07 04:27 4.51582 -77.00365 15663 ft 360 kts 147°
2026-05-07 04:27 4.49430 -76.99072 15666 ft 360 kts 147°
2026-05-07 04:27 4.47280 -76.97779 15686 ft 361 kts 147°
2026-05-07 04:28 4.45128 -76.96486 15710 ft 361 kts 147°
2026-05-07 04:28 4.42974 -76.95191 15723 ft 361 kts 147°
2026-05-07 04:28 4.40822 -76.93898 15724 ft 361 kts 147°
2026-05-07 04:28 4.38663 -76.92600 15735 ft 361 kts 147°
2026-05-07 04:29 4.36500 -76.91300 15737 ft 362 kts 147°
2026-05-07 04:29 4.34344 -76.90005 15759 ft 362 kts 147°
2026-05-07 04:29 4.32209 -76.88722 15768 ft 362 kts 147°
2026-05-07 04:29 4.30050 -76.87425 15778 ft 362 kts 147°
2026-05-07 04:30 4.27891 -76.86128 15795 ft 362 kts 147°
2026-05-07 04:30 4.25731 -76.84831 15814 ft 362 kts 147°
2026-05-07 04:30 4.23564 -76.83530 15840 ft 362 kts 147°
2026-05-07 04:30 4.21408 -76.82234 15847 ft 362 kts 147°
2026-05-07 04:31 4.19245 -76.80935 15857 ft 362 kts 147°
2026-05-07 04:31 4.17080 -76.79635 15874 ft 363 kts 147°
2026-05-07 04:31 4.14914 -76.78334 15881 ft 363 kts 147°
2026-05-07 04:31 4.12748 -76.77034 15902 ft 363 kts 147°
2026-05-07 04:32 4.10583 -76.75734 15914 ft 363 kts 147°
2026-05-07 04:32 4.08416 -76.74433 15923 ft 363 kts 147°
2026-05-07 04:32 4.06247 -76.73131 15942 ft 363 kts 147°
2026-05-07 04:32 4.04084 -76.71832 15955 ft 363 kts 147°
2026-05-07 04:33 4.01918 -76.70532 15964 ft 363 kts 147°
2026-05-07 04:33 3.99754 -76.69233 15986 ft 362 kts 147°
2026-05-07 04:33 3.97619 -76.67952 15993 ft 362 kts 147°
2026-05-07 04:33 3.95455 -76.66653 16014 ft 362 kts 147°
2026-05-07 04:34 3.93291 -76.65354 16030 ft 363 kts 147°
2026-05-07 04:34 3.91127 -76.64055 16041 ft 363 kts 147°
2026-05-07 04:34 3.88962 -76.62756 16071 ft 362 kts 147°
2026-05-07 04:34 3.86800 -76.61460 16085 ft 362 kts 147°
2026-05-07 04:35 3.84635 -76.60160 16106 ft 363 kts 147°
2026-05-07 04:35 3.82469 -76.58861 16106 ft 363 kts 147°
2026-05-07 04:35 3.80300 -76.57559 16125 ft 363 kts 147°
2026-05-07 04:35 3.78136 -76.56262 16143 ft 363 kts 147°
2026-05-07 04:36 3.75966 -76.54960 16147 ft 363 kts 147°
2026-05-07 04:36 3.73801 -76.53662 16157 ft 363 kts 147°
2026-05-07 04:36 3.71635 -76.52363 16167 ft 363 kts 147°
2026-05-07 04:36 3.69469 -76.51064 16213 ft 362 kts 147°
2026-05-07 04:37 3.67312 -76.49770 16248 ft 361 kts 146°
2026-05-07 04:37 3.65155 -76.48477 16250 ft 362 kts 146°
2026-05-07 04:37 3.62997 -76.47183 16271 ft 361 kts 146°
2026-05-07 04:37 3.60846 -76.45893 16278 ft 361 kts 146°
2026-05-07 04:38 3.58691 -76.44600 16278 ft 361 kts 146°
2026-05-07 04:38 3.56559 -76.43323 16294 ft 361 kts 146°
2026-05-07 04:38 3.54406 -76.42032 16297 ft 361 kts 146°
2026-05-07 04:38 3.52248 -76.40738 16300 ft 361 kts 146°
2026-05-07 04:39 3.50092 -76.39446 16308 ft 361 kts 146°
2026-05-07 04:39 3.47930 -76.38149 16315 ft 361 kts 146°
2026-05-07 04:39 3.45775 -76.36858 16322 ft 361 kts 146°
2026-05-07 04:39 3.43620 -76.35566 16324 ft 361 kts 146°
2026-05-07 04:40 3.41462 -76.34273 16334 ft 361 kts 146°
2026-05-07 04:40 3.39305 -76.32981 16337 ft 361 kts 146°
2026-05-07 04:40 3.37145 -76.31686 16348 ft 361 kts 146°
2026-05-07 04:40 3.34985 -76.30392 16357 ft 361 kts 146°
2026-05-07 04:41 3.32828 -76.29100 16366 ft 361 kts 146°
2026-05-07 04:41 3.30700 -76.27825 16378 ft 361 kts 146°
2026-05-07 04:41 3.28543 -76.26532 16382 ft 361 kts 146°
2026-05-07 04:41 3.26385 -76.25239 16398 ft 361 kts 146°
2026-05-07 04:42 3.24230 -76.23948 16418 ft 361 kts 146°
2026-05-07 04:42 3.22072 -76.22656 16437 ft 361 kts 146°
2026-05-07 04:42 3.19908 -76.21360 16464 ft 361 kts 146°
2026-05-07 04:42 3.17753 -76.20069 16476 ft 361 kts 146°
2026-05-07 04:43 3.15601 -76.18780 16505 ft 360 kts 146°
2026-05-07 04:43 3.13453 -76.17494 16541 ft 359 kts 146°
2026-05-07 04:43 3.11307 -76.16208 16566 ft 359 kts 146°
2026-05-07 04:43 3.09186 -76.14939 16596 ft 358 kts 146°
2026-05-07 04:44 3.07048 -76.13659 16651 ft 357 kts 146°
2026-05-07 04:44 3.04920 -76.12384 16655 ft 357 kts 146°
2026-05-07 04:44 3.02784 -76.11105 16692 ft 358 kts 146°
2026-05-07 04:44 3.00649 -76.09826 16714 ft 357 kts 146°
2026-05-07 04:45 2.98514 -76.08548 16732 ft 358 kts 146°
2026-05-07 04:45 2.96377 -76.07269 16731 ft 358 kts 146°
2026-05-07 04:45 2.94240 -76.05990 16790 ft 358 kts 146°
2026-05-07 04:45 2.92108 -76.04713 16826 ft 357 kts 146°
2026-05-07 04:46 2.89981 -76.03440 16880 ft 356 kts 146°
2026-05-07 04:46 2.87855 -76.02168 16939 ft 356 kts 146°
2026-05-07 04:46 2.85721 -76.00890 16945 ft 358 kts 146°
2026-05-07 04:46 2.83583 -75.99610 16950 ft 358 kts 146°
2026-05-07 04:47 2.81469 -75.98345 16971 ft 358 kts 146°
2026-05-07 04:47 2.79327 -75.97063 16976 ft 359 kts 146°
2026-05-07 04:47 2.77180 -75.95778 16995 ft 360 kts 146°
2026-05-07 04:47 2.75031 -75.94492 17071 ft 359 kts 146°
2026-05-07 04:48 2.72886 -75.93209 17068 ft 359 kts 146°
2026-05-07 04:48 2.70738 -75.91924 17085 ft 359 kts 146°
2026-05-07 04:48 2.68597 -75.90643 17091 ft 359 kts 146°
2026-05-07 04:48 2.66454 -75.89361 17100 ft 359 kts 146°
2026-05-07 04:49 2.64309 -75.88077 17110 ft 359 kts 146°
2026-05-07 04:49 2.62161 -75.86792 17106 ft 359 kts 146°
2026-05-07 04:49 2.60013 -75.85507 17129 ft 359 kts 146°
2026-05-07 04:49 2.57868 -75.84224 17143 ft 359 kts 146°
2026-05-07 04:50 2.55721 -75.82939 17148 ft 360 kts 146°
2026-05-07 04:50 2.53571 -75.81653 17156 ft 360 kts 146°
2026-05-07 04:50 2.51451 -75.80385 17162 ft 360 kts 146°
2026-05-07 04:50 2.49302 -75.79100 17145 ft 359 kts 146°
2026-05-07 04:51 2.47158 -75.77817 17169 ft 359 kts 146°
2026-05-07 04:51 2.45016 -75.76536 17189 ft 359 kts 146°
2026-05-07 04:51 2.42871 -75.75254 17192 ft 359 kts 146°
2026-05-07 04:51 2.40723 -75.73969 17196 ft 360 kts 147°
2026-05-07 04:52 2.38567 -75.72680 17194 ft 360 kts 147°
2026-05-07 04:52 2.36415 -75.71393 17217 ft 360 kts 147°
2026-05-07 04:52 2.34263 -75.70106 17229 ft 361 kts 147°
2026-05-07 04:52 2.32105 -75.68815 17237 ft 362 kts 147°
2026-05-07 04:53 2.29948 -75.67525 17243 ft 362 kts 147°
2026-05-07 04:53 2.27782 -75.66231 17254 ft 362 kts 147°
2026-05-07 04:53 2.25618 -75.64937 17263 ft 362 kts 147°
2026-05-07 04:53 2.23455 -75.63643 17270 ft 362 kts 147°
2026-05-07 04:54 2.21289 -75.62349 17279 ft 363 kts 147°
2026-05-07 04:54 2.19149 -75.61069 17295 ft 363 kts 147°
2026-05-07 04:54 2.16979 -75.59772 17309 ft 363 kts 147°
2026-05-07 04:54 2.14808 -75.58474 17316 ft 364 kts 147°
2026-05-07 04:55 2.12627 -75.57171 17329 ft 364 kts 147°
2026-05-07 04:55 2.10451 -75.55870 17336 ft 364 kts 147°
2026-05-07 04:55 2.08279 -75.54571 17351 ft 364 kts 147°
2026-05-07 04:55 2.06108 -75.53274 17393 ft 363 kts 147°
2026-05-07 04:56 2.03937 -75.51977 17411 ft 363 kts 147°
2026-05-07 04:56 2.01766 -75.50679 17444 ft 363 kts 147°
2026-05-07 04:56 1.99601 -75.49385 17479 ft 363 kts 147°
2026-05-07 04:56 1.97431 -75.48088 17505 ft 363 kts 147°
2026-05-07 04:57 1.95295 -75.46812 17516 ft 363 kts 147°
2026-05-07 04:57 1.93127 -75.45515 17533 ft 362 kts 147°
2026-05-07 04:57 1.90964 -75.44223 17535 ft 363 kts 147°
2026-05-07 04:57 1.88800 -75.42930 17558 ft 363 kts 147°
2026-05-07 04:58 1.86630 -75.41633 17560 ft 363 kts 147°
2026-05-07 04:58 1.84459 -75.40336 17568 ft 363 kts 147°
2026-05-07 04:58 1.82286 -75.39037 17568 ft 363 kts 147°
2026-05-07 04:58 1.80115 -75.37739 17576 ft 363 kts 147°
2026-05-07 04:59 1.77946 -75.36443 17583 ft 363 kts 147°
2026-05-07 04:59 1.75775 -75.35146 17591 ft 364 kts 147°
2026-05-07 04:59 1.73596 -75.33844 17588 ft 364 kts 147°
2026-05-07 04:59 1.71448 -75.32560 17602 ft 364 kts 147°
2026-05-07 05:00 1.69267 -75.31257 17612 ft 365 kts 147°
2026-05-07 05:00 1.67084 -75.29954 17619 ft 365 kts 147°
2026-05-07 05:00 1.64901 -75.28648 17623 ft 366 kts 147°
2026-05-07 05:00 1.62714 -75.27341 17623 ft 366 kts 147°
2026-05-07 05:01 1.60527 -75.26032 17620 ft 366 kts 147°
2026-05-07 05:01 1.58342 -75.24726 17621 ft 366 kts 147°
2026-05-07 05:01 1.56157 -75.23419 17624 ft 366 kts 147°
2026-05-07 05:01 1.53975 -75.22113 17634 ft 366 kts 147°
2026-05-07 05:02 1.51815 -75.20821 17633 ft 366 kts 147°
2026-05-07 05:02 1.49627 -75.19512 17639 ft 366 kts 147°
2026-05-07 05:02 1.47441 -75.18204 17651 ft 366 kts 147°
2026-05-07 05:02 1.45252 -75.16895 17655 ft 366 kts 147°
2026-05-07 05:03 1.43062 -75.15585 17658 ft 366 kts 147°
2026-05-07 05:03 1.40869 -75.14273 17658 ft 367 kts 147°
2026-05-07 05:03 1.38675 -75.12960 17662 ft 367 kts 147°
2026-05-07 05:03 1.36484 -75.11649 17675 ft 367 kts 147°
2026-05-07 05:04 1.34294 -75.10339 17686 ft 367 kts 147°
2026-05-07 05:04 1.32126 -75.09042 17694 ft 367 kts 147°
2026-05-07 05:04 1.29931 -75.07730 17697 ft 367 kts 147°
2026-05-07 05:04 1.27736 -75.06417 17705 ft 367 kts 147°
2026-05-07 05:05 1.25542 -75.05105 17708 ft 368 kts 147°
2026-05-07 05:05 1.23347 -75.03792 17711 ft 368 kts 147°
2026-05-07 05:05 1.21148 -75.02476 17721 ft 368 kts 147°
2026-05-07 05:05 1.18947 -75.01160 17722 ft 368 kts 147°
2026-05-07 05:06 1.16748 -74.99845 17735 ft 368 kts 147°
2026-05-07 05:06 1.15292 -74.98974 17738 ft 368 kts 147°
2026-05-07 05:06 1.13091 -74.97658 17741 ft 368 kts 147°
2026-05-07 05:06 1.10893 -74.96343 17752 ft 368 kts 147°
2026-05-07 05:07 1.08691 -74.95026 17757 ft 369 kts 147°
2026-05-07 05:07 1.06490 -74.93710 17761 ft 369 kts 147°
2026-05-07 05:07 1.03574 -74.91966 17768 ft 369 kts 147°
2026-05-07 05:07 1.01373 -74.90649 17775 ft 369 kts 147°
2026-05-07 05:08 0.99169 -74.89331 17780 ft 369 kts 147°
2026-05-07 05:08 0.97682 -74.88442 17784 ft 369 kts 147°
2026-05-07 05:08 0.95475 -74.87123 17792 ft 369 kts 147°
2026-05-07 05:08 0.93274 -74.85806 17798 ft 369 kts 147°
2026-05-07 05:09 0.91073 -74.84489 17802 ft 369 kts 147°
2026-05-07 05:09 0.88864 -74.83168 17806 ft 369 kts 147°
2026-05-07 05:09 0.86688 -74.81867 17814 ft 369 kts 147°
2026-05-07 05:09 0.84480 -74.80547 17815 ft 369 kts 147°
2026-05-07 05:10 0.82271 -74.79226 17828 ft 369 kts 147°
2026-05-07 05:10 0.80065 -74.77910 17828 ft 369 kts 147°
2026-05-07 05:10 0.77858 -74.76595 17835 ft 369 kts 147°
2026-05-07 05:10 0.75650 -74.75279 17838 ft 370 kts 148°
2026-05-07 05:11 0.73436 -74.73959 17849 ft 370 kts 148°
2026-05-07 05:11 0.71224 -74.72641 17847 ft 370 kts 148°
2026-05-07 05:11 0.69016 -74.71324 17864 ft 370 kts 148°
2026-05-07 05:11 0.66806 -74.70006 17870 ft 370 kts 148°
2026-05-07 05:12 0.64595 -74.68687 17873 ft 370 kts 148°
2026-05-07 05:12 0.62410 -74.67384 17878 ft 370 kts 147°
2026-05-07 05:12 0.60194 -74.66063 17883 ft 370 kts 148°
2026-05-07 05:12 0.57987 -74.64746 17887 ft 370 kts 148°
2026-05-07 05:13 0.55776 -74.63427 17891 ft 370 kts 148°
2026-05-07 05:13 0.53564 -74.62108 17895 ft 370 kts 148°
2026-05-07 05:13 0.51350 -74.60787 17904 ft 370 kts 148°
2026-05-07 05:13 0.49136 -74.59467 17906 ft 370 kts 148°
2026-05-07 05:14 0.46924 -74.58148 17913 ft 370 kts 148°
2026-05-07 05:14 0.44711 -74.56828 17914 ft 370 kts 148°
2026-05-07 05:14 0.42499 -74.55508 17922 ft 370 kts 148°
2026-05-07 05:14 0.40283 -74.54187 17927 ft 370 kts 148°
2026-05-07 05:15 0.38071 -74.52868 17932 ft 371 kts 148°
2026-05-07 05:15 0.35856 -74.51547 17935 ft 371 kts 148°
2026-05-07 05:15 0.33666 -74.50241 17935 ft 371 kts 148°
2026-05-07 05:15 0.31453 -74.48921 17946 ft 371 kts 148°
2026-05-07 05:16 0.29239 -74.47601 17952 ft 371 kts 148°
2026-05-07 05:16 0.27018 -74.46276 17959 ft 371 kts 148°
2026-05-07 05:16 0.24807 -74.44957 17960 ft 371 kts 148°
2026-05-07 05:16 0.22591 -74.43636 17967 ft 371 kts 148°
2026-05-07 05:17 0.20375 -74.42315 17973 ft 371 kts 148°
2026-05-07 05:17 0.18161 -74.40994 17975 ft 371 kts 148°
2026-05-07 05:17 0.15944 -74.39672 17981 ft 371 kts 148°
2026-05-07 05:17 0.13728 -74.38351 17986 ft 371 kts 148°
2026-05-07 05:18 0.11510 -74.37028 17990 ft 371 kts 148°
2026-05-07 05:18 0.09292 -74.35705 17995 ft 371 kts 148°
2026-05-07 05:18 0.07078 -74.34385 17999 ft 371 kts 148°
2026-05-07 05:18 0.04862 -74.33063 18007 ft 370 kts 148°
2026-05-07 05:19 0.02679 -74.31761 18009 ft 370 kts 148°
2026-05-07 05:19 0.00465 -74.30441 18016 ft 370 kts 148°
2026-05-07 05:19 -0.01748 -74.29121 18021 ft 370 kts 148°
2026-05-07 05:19 -0.03959 -74.27803 18025 ft 370 kts 148°
2026-05-07 05:20 -0.06175 -74.26481 18031 ft 370 kts 148°
2026-05-07 05:20 -0.08386 -74.25162 18037 ft 370 kts 148°
2026-05-07 05:20 -0.10602 -74.23841 18042 ft 370 kts 148°
2026-05-07 05:20 -0.12813 -74.22522 18047 ft 370 kts 148°
2026-05-07 05:21 -0.15024 -74.21204 18050 ft 370 kts 148°
2026-05-07 05:21 -0.19459 -74.18559 18062 ft 371 kts 148°
2026-05-07 05:21 -0.21673 -74.17238 18068 ft 371 kts 148°
2026-05-07 05:22 -0.23857 -74.15936 18073 ft 371 kts 148°
2026-05-07 05:22 -0.26072 -74.14615 18069 ft 371 kts 148°
2026-05-07 05:22 -0.28290 -74.13293 18076 ft 371 kts 148°
2026-05-07 05:22 -0.30505 -74.11972 18082 ft 371 kts 148°
2026-05-07 05:23 -0.32727 -74.10646 18089 ft 371 kts 148°
2026-05-07 05:23 -0.34947 -74.09322 18099 ft 371 kts 148°
2026-05-07 05:23 -0.37168 -74.07997 18095 ft 371 kts 148°
2026-05-07 05:23 -0.39387 -74.06674 18109 ft 372 kts 148°
2026-05-07 05:24 -0.41611 -74.05348 18115 ft 372 kts 148°
2026-05-07 05:24 -0.43836 -74.04021 18120 ft 372 kts 148°
2026-05-07 05:24 -0.46057 -74.02696 18128 ft 372 kts 148°
2026-05-07 05:24 -0.48279 -74.01371 18134 ft 372 kts 148°
2026-05-07 05:25 -0.50473 -74.00063 18138 ft 372 kts 148°
2026-05-07 05:25 -0.52695 -73.98737 18142 ft 372 kts 148°
2026-05-07 05:25 -0.54915 -73.97413 18153 ft 372 kts 148°
2026-05-07 05:25 -0.57139 -73.96086 18154 ft 372 kts 148°
2026-05-07 05:26 -0.59359 -73.94762 18163 ft 372 kts 148°
2026-05-07 05:26 -0.61579 -73.93438 18167 ft 372 kts 148°
2026-05-07 05:26 -0.63800 -73.92114 18173 ft 371 kts 148°
2026-05-07 05:26 -0.66025 -73.90787 18178 ft 371 kts 148°
2026-05-07 05:27 -0.68241 -73.89465 18185 ft 371 kts 148°
2026-05-07 05:27 -0.70462 -73.88140 18194 ft 371 kts 148°
2026-05-07 05:27 -0.72680 -73.86817 18196 ft 371 kts 148°
2026-05-07 05:27 -0.74898 -73.85494 18202 ft 371 kts 148°
2026-05-07 05:28 -0.77113 -73.84172 18208 ft 371 kts 148°
2026-05-07 05:28 -0.79325 -73.82853 18218 ft 370 kts 148°
2026-05-07 05:28 -0.81539 -73.81532 18229 ft 370 kts 148°
2026-05-07 05:28 -0.83750 -73.80214 18230 ft 370 kts 148°
2026-05-07 05:29 -0.85962 -73.78894 18236 ft 370 kts 148°
2026-05-07 05:29 -0.88172 -73.77575 18241 ft 370 kts 148°
2026-05-07 05:29 -0.90384 -73.76256 18242 ft 370 kts 148°
2026-05-07 05:29 -0.92571 -73.74951 18245 ft 370 kts 148°
2026-05-07 05:30 -0.94787 -73.73629 18253 ft 371 kts 148°
2026-05-07 05:30 -0.97005 -73.72306 18250 ft 371 kts 148°
2026-05-07 05:30 -0.99218 -73.70985 18258 ft 371 kts 148°
2026-05-07 05:30 -1.01442 -73.69658 18258 ft 371 kts 148°
2026-05-07 05:31 -1.03660 -73.68335 18267 ft 371 kts 148°
2026-05-07 05:31 -1.05878 -73.67011 18270 ft 371 kts 148°
2026-05-07 05:31 -1.08096 -73.65687 18279 ft 371 kts 148°
2026-05-07 05:31 -1.10317 -73.64362 18283 ft 372 kts 148°
2026-05-07 05:32 -1.12546 -73.63050 18285 ft 372 kts 150°
2026-05-07 05:32 -1.14916 -73.62006 18286 ft 373 kts 159°
2026-05-07 05:32 -1.17374 -73.61165 18295 ft 374 kts 160°
2026-05-07 05:32 -1.19847 -73.60357 18299 ft 374 kts 161°
2026-05-07 05:33 -1.22324 -73.59555 18302 ft 374 kts 161°
2026-05-07 05:33 -1.24773 -73.58758 18305 ft 374 kts 160°
2026-05-07 05:33 -1.27246 -73.57947 18310 ft 374 kts 160°
2026-05-07 05:33 -1.29720 -73.57129 18316 ft 374 kts 160°
2026-05-07 05:34 -1.32189 -73.56309 18320 ft 374 kts 160°
2026-05-07 05:34 -1.34660 -73.55485 18327 ft 374 kts 160°
2026-05-07 05:34 -1.37126 -73.54661 18333 ft 374 kts 160°
2026-05-07 05:34 -1.39593 -73.53837 18345 ft 373 kts 160°
2026-05-07 05:35 -1.42055 -73.53012 18344 ft 373 kts 160°
2026-05-07 05:35 -1.44515 -73.52189 18360 ft 373 kts 160°
2026-05-07 05:35 -1.46978 -73.51365 18367 ft 373 kts 160°
2026-05-07 05:35 -1.49436 -73.50542 18373 ft 372 kts 160°
2026-05-07 05:36 -1.51889 -73.49721 18380 ft 372 kts 160°
2026-05-07 05:36 -1.54340 -73.48900 18393 ft 372 kts 160°
2026-05-07 05:36 -1.56795 -73.48078 18396 ft 371 kts 160°
2026-05-07 05:36 -1.59251 -73.47256 18403 ft 371 kts 160°
2026-05-07 05:37 -1.61666 -73.46447 18413 ft 371 kts 160°
2026-05-07 05:37 -1.64118 -73.45627 18414 ft 371 kts 160°
2026-05-07 05:37 -1.66567 -73.44807 18414 ft 371 kts 160°
2026-05-07 05:37 -1.69011 -73.43988 18410 ft 370 kts 160°
2026-05-07 05:38 -1.71455 -73.43170 18426 ft 370 kts 160°
2026-05-07 05:38 -1.73899 -73.42352 18421 ft 370 kts 160°
2026-05-07 05:38 -1.76346 -73.41532 18434 ft 370 kts 160°
2026-05-07 05:38 -1.78789 -73.40714 18441 ft 370 kts 160°
2026-05-07 05:39 -1.81202 -73.39906 18445 ft 370 kts 160°
2026-05-07 05:39 -1.83645 -73.39088 18450 ft 370 kts 160°
2026-05-07 05:39 -1.86089 -73.38270 18456 ft 370 kts 160°
2026-05-07 05:39 -1.88534 -73.37451 18459 ft 370 kts 160°
2026-05-07 05:40 -1.90980 -73.36632 18465 ft 370 kts 160°
2026-05-07 05:40 -1.93423 -73.35814 18472 ft 370 kts 160°
2026-05-07 05:40 -1.95867 -73.34995 18479 ft 370 kts 160°
2026-05-07 05:40 -1.98317 -73.34174 18482 ft 370 kts 160°
2026-05-07 05:41 -2.00762 -73.33356 18486 ft 370 kts 160°
2026-05-07 05:41 -2.03214 -73.32534 18487 ft 370 kts 160°
2026-05-07 05:41 -2.05656 -73.31716 18495 ft 370 kts 160°
2026-05-07 05:41 -2.08100 -73.30898 18498 ft 371 kts 160°
2026-05-07 05:42 -2.10514 -73.30089 18501 ft 371 kts 160°
2026-05-07 05:42 -2.12960 -73.29269 18503 ft 371 kts 160°
2026-05-07 05:42 -2.15402 -73.28451 18509 ft 371 kts 160°
2026-05-07 05:42 -2.17879 -73.27622 18515 ft 371 kts 160°
2026-05-07 05:43 -2.20294 -73.26812 18519 ft 370 kts 160°
2026-05-07 05:43 -2.22741 -73.25993 18530 ft 370 kts 160°
2026-05-07 05:43 -2.25185 -73.25174 18531 ft 370 kts 160°
2026-05-07 05:43 -2.27626 -73.24356 18539 ft 370 kts 160°
2026-05-07 05:44 -2.30071 -73.23537 18539 ft 370 kts 160°
2026-05-07 05:44 -2.32514 -73.22718 18546 ft 370 kts 159°
2026-05-07 05:44 -2.34957 -73.21899 18549 ft 370 kts 159°
2026-05-07 05:44 -2.37401 -73.21080 18557 ft 370 kts 160°
2026-05-07 05:45 -2.39843 -73.20262 18561 ft 370 kts 160°
2026-05-07 05:45 -2.42291 -73.19442 18563 ft 370 kts 160°
2026-05-07 05:45 -2.44733 -73.18623 18583 ft 370 kts 159°
2026-05-07 05:45 -2.47173 -73.17805 18584 ft 370 kts 159°
2026-05-07 05:46 -2.49619 -73.16985 18586 ft 370 kts 159°
2026-05-07 05:46 -2.52026 -73.16178 18593 ft 370 kts 160°
2026-05-07 05:46 -2.54466 -73.15361 18594 ft 370 kts 159°
2026-05-07 05:46 -2.56903 -73.14544 18601 ft 370 kts 159°
2026-05-07 05:47 -2.59343 -73.13726 18602 ft 370 kts 159°
2026-05-07 05:47 -2.61782 -73.12908 18614 ft 370 kts 159°
2026-05-07 05:47 -2.64220 -73.12090 18614 ft 370 kts 159°
2026-05-07 05:47 -2.66661 -73.11272 18623 ft 370 kts 159°
2026-05-07 05:48 -2.69102 -73.10454 18628 ft 370 kts 159°
2026-05-07 05:48 -2.71537 -73.09637 18634 ft 370 kts 159°
2026-05-07 05:48 -2.73954 -73.08827 18639 ft 370 kts 159°
2026-05-07 05:48 -2.76393 -73.08009 18644 ft 370 kts 159°
2026-05-07 05:49 -2.78829 -73.07191 18648 ft 370 kts 159°
2026-05-07 05:49 -2.81272 -73.06372 18653 ft 370 kts 159°
2026-05-07 05:49 -2.83708 -73.05555 18667 ft 370 kts 159°
2026-05-07 05:49 -2.86153 -73.04735 18670 ft 370 kts 159°
2026-05-07 05:50 -2.88594 -73.03916 18676 ft 370 kts 159°
2026-05-07 05:50 -2.91032 -73.03098 18679 ft 370 kts 159°
2026-05-07 05:50 -2.93469 -73.02257 18682 ft 369 kts 156°
2026-05-07 05:50 -2.95763 -73.01123 18684 ft 367 kts 146°
2026-05-07 05:51 -2.97866 -72.99677 18696 ft 366 kts 143°
2026-05-07 05:51 -2.99933 -72.98187 18697 ft 366 kts 142°
2026-05-07 05:51 -3.01996 -72.96684 18705 ft 367 kts 142°
2026-05-07 05:51 -3.04034 -72.95201 18713 ft 367 kts 142°
2026-05-07 05:52 -3.06105 -72.93699 18718 ft 367 kts 142°
2026-05-07 05:52 -3.08178 -72.92201 18723 ft 367 kts 143°
2026-05-07 05:52 -3.10251 -72.90710 18724 ft 367 kts 143°
2026-05-07 05:52 -3.12327 -72.89219 18731 ft 367 kts 143°
2026-05-07 05:53 -3.14407 -72.87727 18735 ft 367 kts 143°
2026-05-07 05:53 -3.16481 -72.86241 18740 ft 367 kts 143°
2026-05-07 05:53 -3.18565 -72.84747 18742 ft 367 kts 143°
2026-05-07 05:53 -3.20645 -72.83258 18749 ft 368 kts 143°
2026-05-07 05:54 -3.22698 -72.81787 18757 ft 368 kts 143°
2026-05-07 05:54 -3.24782 -72.80294 18762 ft 368 kts 143°
2026-05-07 05:54 -3.26861 -72.78805 18767 ft 368 kts 143°
2026-05-07 05:54 -3.28941 -72.77315 18772 ft 368 kts 143°
2026-05-07 05:55 -3.30320 -72.76327 18776 ft 368 kts 143°
2026-05-07 05:55 -3.33104 -72.74332 18783 ft 368 kts 143°
2026-05-07 05:55 -3.34512 -72.73323 18788 ft 368 kts 143°
2026-05-07 05:55 -3.36566 -72.71852 18790 ft 368 kts 143°
2026-05-07 05:56 -3.38652 -72.70357 18792 ft 368 kts 143°
2026-05-07 05:56 -3.40737 -72.68863 18802 ft 368 kts 143°
2026-05-07 05:56 -3.42821 -72.67369 18806 ft 369 kts 143°
2026-05-07 05:56 -3.44908 -72.65874 18814 ft 369 kts 143°
2026-05-07 05:57 -3.46994 -72.64379 18817 ft 369 kts 143°
2026-05-07 05:57 -3.49079 -72.62885 18822 ft 369 kts 143°
2026-05-07 05:57 -3.51166 -72.61388 18827 ft 369 kts 143°
2026-05-07 05:57 -3.53254 -72.59891 18835 ft 369 kts 143°
2026-05-07 05:58 -3.55345 -72.58393 18838 ft 369 kts 143°
2026-05-07 05:58 -3.57407 -72.56915 18841 ft 369 kts 143°
2026-05-07 05:58 -3.59492 -72.55420 18848 ft 369 kts 143°
2026-05-07 05:58 -3.61583 -72.53920 18853 ft 369 kts 143°
2026-05-07 05:59 -3.63669 -72.52425 18860 ft 369 kts 143°
2026-05-07 05:59 -3.65755 -72.50929 18861 ft 369 kts 143°
2026-05-07 05:59 -3.67807 -72.49442 18850 ft 356 kts 142°
2026-05-07 05:59 -3.69753 -72.48017 18826 ft 332 kts 143°
2026-05-07 06:00 -3.71547 -72.46741 18784 ft 302 kts 143°
2026-05-07 06:00 -3.73193 -72.45559 18768 ft 286 kts 141°
2026-05-07 06:00 -3.74778 -72.44387 18765 ft 280 kts 141°
2026-05-07 06:00 -3.76333 -72.43247 18760 ft 274 kts 141°
2026-05-07 06:01 -3.77840 -72.42153 18750 ft 268 kts 142°
2026-05-07 06:01 -3.79338 -72.41070 18747 ft 263 kts 142°
2026-05-07 06:01 -3.80805 -72.40022 18718 ft 250 kts 143°
2026-05-07 06:01 -3.82212 -72.39054 17927 ft 251 kts 143°
2026-05-07 06:02 -3.82617 -72.38776 17228 ft 264 kts 144°
2026-05-07 07:15 -3.82962 -72.38537 16567 ft 277 kts 144°
2026-05-07 07:15 -3.84774 -72.37260 13337 ft 358 kts 144°
2026-05-07 07:15 -3.86860 -72.35751 12060 ft 362 kts 143°
2026-05-07 07:15 -3.88729 -72.34379 12679 ft 302 kts 143°
2026-05-07 07:16 -3.90303 -72.33217 12700 ft 275 kts 143°
2026-05-07 07:16 -3.91887 -72.32041 11234 ft 299 kts 143°
2026-05-07 07:16 -3.93669 -72.30717 9543 ft 334 kts 143°
2026-05-07 07:16 -3.95365 -72.29395 10083 ft 280 kts 137°
2026-05-07 07:17 -3.96737 -72.28172 10122 ft 257 kts 137°
2026-05-07 07:17 -3.98160 -72.27025 9587 ft 263 kts 144°
2026-05-07 07:17 -3.99652 -72.26007 9458 ft 264 kts 152°
2026-05-07 07:17 -4.01337 -72.25102 9403 ft 282 kts 150°
2026-05-07 07:18 -4.03038 -72.24176 10023 ft 271 kts 149°
2026-05-07 07:18 -4.04708 -72.23224 9968 ft 291 kts 149°
2026-05-07 07:18 -4.06506 -72.22099 9795 ft 309 kts 149°
2026-05-07 07:18 -4.08201 -72.21007 10938 ft 271 kts 144°
2026-05-07 07:19 -4.09758 -72.19918 11170 ft 279 kts 144°
2026-05-07 07:19 -4.11408 -72.18751 11035 ft 301 kts 145°
2026-05-07 07:19 -4.13185 -72.17613 11378 ft 300 kts 148°
2026-05-07 07:19 -4.14956 -72.16622 12239 ft 282 kts 150°
2026-05-07 07:20 -4.16486 -72.15490 12706 ft 282 kts 129°
2026-05-07 07:20 -4.17632 -72.13760 12340 ft 308 kts 125°
2026-05-07 07:20 -4.18793 -72.12116 13676 ft 261 kts 122°
2026-05-07 07:20 -4.19790 -72.10759 14798 ft 241 kts 132°
2026-05-07 07:21 -4.21160 -72.09515 13992 ft 295 kts 142°
2026-05-07 07:21 -4.22918 -72.08269 13684 ft 320 kts 148°
2026-05-07 07:21 -4.24883 -72.07181 13866 ft 322 kts 154°
2026-05-07 07:21 -4.26720 -72.05977 14339 ft 312 kts 142°
2026-05-07 07:22 -4.28553 -72.04848 14728 ft 309 kts 137°
2026-05-07 07:22 -4.30217 -72.03445 14891 ft 312 kts 135°
2026-05-07 07:22 -4.31786 -72.02003 15479 ft 299 kts 137°
2026-05-07 07:22 -4.33368 -72.00717 16105 ft 290 kts 143°
2026-05-07 07:23 -4.35057 -71.99645 16357 ft 296 kts 150°
2026-05-07 07:23 -4.36848 -71.98532 16222 ft 312 kts 146°
2026-05-07 07:23 -4.38549 -71.97154 16265 ft 318 kts 133°
2026-05-07 07:23 -4.40195 -71.95711 16743 ft 310 kts 143°
2026-05-07 07:24 -4.41917 -71.94495 17443 ft 296 kts 144°
2026-05-07 07:24 -4.43685 -71.93450 17860 ft 297 kts 153°
2026-05-07 07:24 -4.45669 -71.92708 17726 ft 315 kts 163°
2026-05-07 07:24 -4.47790 -71.91963 17571 ft 327 kts 154°
2026-05-07 07:25 -4.51395 -71.89383 18368 ft 311 kts 138°
2026-05-07 07:25 -4.52934 -71.87918 18916 ft 301 kts 136°
2026-05-07 07:25 -4.54493 -71.86509 19152 ft 304 kts 139°
2026-05-07 07:26 -4.56212 -71.85199 19065 ft 318 kts 142°
2026-05-07 07:26 -4.58054 -71.83908 19069 ft 326 kts 146°
2026-05-07 07:26 -4.59962 -71.82706 19398 ft 321 kts 146°
2026-05-07 07:26 -4.61820 -71.81533 19880 ft 312 kts 146°
2026-05-07 07:27 -4.63657 -71.80374 20177 ft 312 kts 146°
2026-05-07 07:27 -4.65525 -71.79203 19990 ft 326 kts 146°
2026-05-07 07:27 -4.67484 -71.77940 19501 ft 346 kts 145°
2026-05-07 07:27 -4.69448 -71.76665 20166 ft 323 kts 145°
2026-05-07 07:28 -4.70653 -71.75810 20451 ft 319 kts 142°
2026-05-07 07:57 -4.71267 -71.75352 20417 ft 323 kts 142°
2026-05-07 07:57 -4.73114 -71.73992 20309 ft 330 kts 142°
2026-05-07 07:57 -4.74932 -71.72651 20793 ft 318 kts 143°
2026-05-07 07:57 -4.76699 -71.71383 21247 ft 309 kts 142°
2026-05-07 07:58 -4.78355 -71.70162 21233 ft 319 kts 141°
2026-05-07 07:58 -4.80155 -71.68782 21293 ft 333 kts 139°
2026-05-07 07:58 -4.81991 -71.67228 21192 ft 354 kts 137°
2026-05-07 07:58 -4.83886 -71.65586 21307 ft 367 kts 138°
2026-05-07 07:59 -4.85895 -71.63923 21405 ft 381 kts 140°
2026-05-07 07:59 -4.88017 -71.62257 21510 ft 393 kts 141°
2026-05-07 07:59 -4.90223 -71.60598 21780 ft 399 kts 142°
2026-05-07 07:59 -4.92476 -71.58953 22185 ft 401 kts 143°
2026-05-07 08:00 -4.94751 -71.57321 22603 ft 403 kts 143°
2026-05-07 08:00 -4.96990 -71.55728 22976 ft 406 kts 143°
2026-05-07 08:00 -4.99330 -71.54070 23339 ft 409 kts 143°
2026-05-07 08:00 -5.01664 -71.52418 23659 ft 412 kts 143°
2026-05-07 08:01 -5.04003 -71.50763 24030 ft 411 kts 143°
2026-05-07 08:01 -5.71172 -71.00849 24274 ft 411 kts 147°
2026-05-07 08:01 -5.73733 -70.99500 24474 ft 418 kts 153°
2026-05-07 08:01 -5.74550 -70.99115 24558 ft 0 kts 225°
2026-05-07 08:02 -5.75230 -70.99001 24883 ft 0 kts 152°
2026-05-07 08:02 -6.61780 -70.45787 24969 ft 32000 kts 168°
2026-05-07 08:02 -6.72019 -70.43341 24940 ft 420 kts 150°
2026-05-07 08:02 -6.74556 -70.41873 25265 ft 420 kts 146°
2026-05-07 08:03 -7.63082 -69.58518 25396 ft 32000 kts 144°
2026-05-07 08:03 -8.75431 -68.55202 25541 ft 420 kts 140°
2026-05-07 08:03 -8.77878 -68.53774 25566 ft 430 kts 160°
2026-05-07 08:03 -8.80706 -68.52775 25835 ft 432 kts 154°
2026-05-07 08:04 -8.83364 -68.51343 26127 ft 432 kts 149°
2026-05-07 08:04 -9.79919 -67.90435 26298 ft 32000 kts 148°
2026-05-07 08:04 -11.52999 -66.78752 26254 ft 32000 kts 144°
2026-05-07 08:04 -11.79900 -66.58977 26536 ft 434 kts 153°
2026-05-07 08:05 -11.82601 -66.57643 26707 ft 439 kts 152°
2026-05-07 08:05 -11.85329 -66.56211 26937 ft 442 kts 152°
2026-05-07 08:05 -11.88053 -66.54742 27226 ft 443 kts 151°
2026-05-07 08:05 -11.90781 -66.53262 27516 ft 445 kts 151°
2026-05-07 08:06 -11.93521 -66.51782 27780 ft 447 kts 152°
2026-05-07 08:06 -11.96284 -66.50299 28039 ft 449 kts 152°
2026-05-07 08:06 -11.99058 -66.48819 28300 ft 450 kts 152°
2026-05-07 08:06 -12.01848 -66.47336 28556 ft 452 kts 152°
2026-05-07 08:07 -12.04620 -66.45865 28800 ft 454 kts 152°
2026-05-07 08:07 -12.07469 -66.44355 29056 ft 456 kts 152°
2026-05-07 08:07 -12.10252 -66.42880 29280 ft 458 kts 152°
2026-05-07 08:07 -12.13083 -66.41380 29524 ft 459 kts 153°
2026-05-07 08:08 -12.15923 -66.39874 29756 ft 461 kts 153°
2026-05-07 08:08 -12.18778 -66.38360 29977 ft 463 kts 153°
2026-05-07 08:08 -12.21639 -66.36842 30167 ft 464 kts 153°
2026-05-07 08:08 -12.24515 -66.35315 30338 ft 466 kts 153°
2026-05-07 08:09 -12.27403 -66.33782 30527 ft 468 kts 153°
2026-05-07 08:09 -12.30296 -66.32246 30702 ft 470 kts 153°
2026-05-07 08:09 -12.33204 -66.30701 30891 ft 471 kts 153°
2026-05-07 08:09 -12.36116 -66.29154 31068 ft 472 kts 153°
2026-05-07 08:10 -12.39039 -66.27600 31272 ft 473 kts 153°
2026-05-07 08:10 -12.41958 -66.26048 31537 ft 472 kts 153°
2026-05-07 08:10 -12.44871 -66.24498 31800 ft 471 kts 153°
2026-05-07 08:10 -12.47783 -66.22950 32022 ft 472 kts 154°
2026-05-07 08:11 -12.50655 -66.21421 32225 ft 472 kts 154°
2026-05-07 08:11 -12.53581 -66.19864 32461 ft 472 kts 154°
2026-05-07 08:11 -12.56492 -66.18315 32693 ft 472 kts 154°
2026-05-07 08:11 -12.59408 -66.16762 32932 ft 472 kts 154°
2026-05-07 08:12 -12.62324 -66.15209 33150 ft 472 kts 154°
2026-05-07 08:12 -12.65243 -66.13654 33376 ft 472 kts 154°
2026-05-07 08:12 -12.68158 -66.12101 33625 ft 472 kts 155°
2026-05-07 08:12 -12.71074 -66.10546 33861 ft 472 kts 155°
2026-05-07 08:13 -12.73953 -66.09012 34043 ft 472 kts 155°
2026-05-07 08:13 -12.76863 -66.07460 34261 ft 471 kts 155°
2026-05-07 08:13 -12.79770 -66.05909 34483 ft 470 kts 155°
2026-05-07 08:13 -12.82677 -66.04357 34697 ft 470 kts 155°
2026-05-07 08:14 -12.85574 -66.02811 34893 ft 469 kts 155°
2026-05-07 08:14 -12.88470 -66.01265 35078 ft 469 kts 155°
2026-05-07 08:14 -12.91362 -65.99721 35283 ft 468 kts 155°
2026-05-07 08:14 -12.94250 -65.98178 35485 ft 468 kts 155°
2026-05-07 08:15 -12.97138 -65.96635 35655 ft 468 kts 155°
2026-05-07 08:15 -13.00013 -65.95099 35827 ft 468 kts 155°
2026-05-07 08:15 -15.19094 -64.81656 35877 ft 32000 kts 150°
2026-05-07 08:15 -15.21747 -64.79982 36149 ft 465 kts 144°
2026-05-07 08:16 -15.24063 -64.77659 36033 ft 472 kts 136°
2026-05-07 08:16 -15.26330 -64.75218 36315 ft 468 kts 137°
2026-05-07 08:16 -15.28609 -64.72821 36544 ft 465 kts 137°
2026-05-07 08:16 -15.30875 -64.70448 36779 ft 462 kts 137°
2026-05-07 08:17 -15.33120 -64.68085 37015 ft 459 kts 137°
2026-05-07 08:17 -15.35348 -64.65726 37175 ft 458 kts 137°
2026-05-07 08:17 -15.37574 -64.63359 37264 ft 458 kts 137°
2026-05-07 08:18 -15.42027 -64.58608 37359 ft 461 kts 136°
2026-05-07 08:18 -15.46493 -64.53838 37374 ft 465 kts 136°
2026-05-07 08:19 -15.51082 -64.49057 37349 ft 468 kts 142°
2026-05-07 08:19 -15.53689 -64.47027 37075 ft 470 kts 151°
2026-05-07 08:19 -15.56474 -64.45259 36939 ft 467 kts 152°
2026-05-07 08:20 -15.62027 -64.41865 36885 ft 460 kts 153°
2026-05-07 08:20 -15.67536 -64.38470 36887 ft 461 kts 152°
2026-05-07 08:20 -15.70297 -64.36748 36768 ft 465 kts 152°
2026-05-07 08:21 -15.73082 -64.35000 36401 ft 468 kts 152°
2026-05-07 08:21 -15.75855 -64.33253 36004 ft 464 kts 152°
2026-05-07 08:21 -15.78572 -64.31536 35602 ft 460 kts 152°
2026-05-07 08:21 -15.81299 -64.29811 35196 ft 457 kts 152°
2026-05-07 08:22 -15.84005 -64.28101 34787 ft 454 kts 152°
2026-05-07 08:22 -15.86696 -64.26401 34370 ft 451 kts 152°
2026-05-07 08:22 -15.89375 -64.24709 33959 ft 449 kts 152°
2026-05-07 08:22 -15.92036 -64.23028 33505 ft 446 kts 152°
2026-05-07 08:23 -15.94682 -64.21357 33069 ft 443 kts 152°
2026-05-07 08:23 -15.97306 -64.19699 32652 ft 440 kts 152°
2026-05-07 08:23 -15.99923 -64.18045 32245 ft 437 kts 152°
2026-05-07 08:23 -16.02511 -64.16408 31844 ft 435 kts 151°
2026-05-07 08:24 -16.05087 -64.14779 31445 ft 432 kts 151°
2026-05-07 08:24 -16.07616 -64.13178 31057 ft 429 kts 151°
2026-05-07 08:24 -16.10161 -64.11567 30670 ft 427 kts 150°
2026-05-07 08:24 -16.12691 -64.09966 30272 ft 425 kts 150°
2026-05-07 08:25 -16.15219 -64.08365 29864 ft 424 kts 150°
2026-05-07 08:25 -16.17732 -64.06773 29416 ft 421 kts 150°
2026-05-07 08:25 -16.20223 -64.05194 28989 ft 418 kts 150°
2026-05-07 08:25 -16.22706 -64.03620 28569 ft 415 kts 150°
2026-05-07 08:26 -16.27611 -64.00508 27764 ft 410 kts 150°
2026-05-07 08:26 -16.30037 -63.98969 27367 ft 407 kts 150°
2026-05-07 08:26 -16.32417 -63.97458 26978 ft 405 kts 150°
2026-05-07 08:27 -16.34820 -63.95933 26586 ft 402 kts 150°
2026-05-07 08:27 -16.37204 -63.94419 26198 ft 400 kts 150°
2026-05-07 08:27 -16.39577 -63.92911 25809 ft 399 kts 150°
2026-05-07 08:27 -16.41943 -63.91407 25405 ft 397 kts 149°
2026-05-07 08:28 -16.44299 -63.89909 25021 ft 396 kts 149°
2026-05-07 08:28 -16.46653 -63.88413 24623 ft 395 kts 149°
2026-05-07 08:28 -16.48997 -63.86923 24219 ft 394 kts 149°
2026-05-07 08:28 -16.51339 -63.85442 23861 ft 393 kts 149°
2026-05-07 08:29 -16.53676 -63.83970 23464 ft 393 kts 149°
2026-05-07 08:29 -16.56010 -63.82500 23012 ft 391 kts 149°
2026-05-07 08:29 -16.58313 -63.81049 22612 ft 389 kts 149°
2026-05-07 08:29 -16.60621 -63.79594 22214 ft 387 kts 149°
2026-05-07 08:30 -16.62921 -63.78143 21831 ft 385 kts 149°
2026-05-07 08:30 -16.65203 -63.76702 21452 ft 383 kts 149°
2026-05-07 08:30 -16.67476 -63.75266 21072 ft 381 kts 149°
2026-05-07 08:30 -16.69739 -63.73837 20700 ft 379 kts 149°
2026-05-07 08:31 -16.71990 -63.72414 20321 ft 377 kts 149°
2026-05-07 08:31 -16.74229 -63.70998 19943 ft 376 kts 149°
2026-05-07 08:31 -16.75710 -63.70061 19686 ft 375 kts 149°
2026-05-07 08:31 -16.78693 -63.68175 19170 ft 374 kts 149°
2026-05-07 08:32 -16.80161 -63.67246 18928 ft 373 kts 150°
2026-05-07 08:32 -16.82380 -63.65841 18539 ft 372 kts 150°
2026-05-07 08:32 -16.84591 -63.64442 18164 ft 371 kts 149°
2026-05-07 08:32 -16.86804 -63.63041 17742 ft 370 kts 149°
2026-05-07 08:33 -16.88998 -63.61651 17355 ft 368 kts 149°
2026-05-07 08:33 -16.91179 -63.60269 16977 ft 366 kts 149°
2026-05-07 08:33 -16.93349 -63.58894 16610 ft 364 kts 149°
2026-05-07 08:33 -16.95507 -63.57526 16231 ft 362 kts 149°
2026-05-07 08:34 -16.97654 -63.56164 15870 ft 360 kts 149°
2026-05-07 08:34 -16.99792 -63.54808 15502 ft 359 kts 149°
2026-05-07 08:34 -17.01921 -63.53458 15130 ft 358 kts 149°
2026-05-07 08:34 -17.04044 -63.52110 14767 ft 357 kts 149°
2026-05-07 08:35 -17.06137 -63.50781 14392 ft 356 kts 149°
2026-05-07 08:35 -17.08252 -63.49439 14024 ft 355 kts 149°
2026-05-07 08:35 -17.10365 -63.48096 13652 ft 355 kts 149°
2026-05-07 08:35 -17.12472 -63.46757 13247 ft 354 kts 149°
2026-05-07 08:36 -17.14572 -63.45423 12873 ft 352 kts 150°
2026-05-07 08:36 -17.16657 -63.44097 12500 ft 351 kts 150°
2026-05-07 08:36 -17.18747 -63.42768 12132 ft 349 kts 150°
2026-05-07 08:36 -17.20826 -63.41446 11748 ft 349 kts 150°
2026-05-07 08:37 -17.22896 -63.40129 11372 ft 348 kts 150°
2026-05-07 08:37 -17.24969 -63.38810 11008 ft 348 kts 150°
2026-05-07 08:37 -17.27040 -63.37492 10626 ft 348 kts 150°
2026-05-07 08:37 -17.29082 -63.36193 10257 ft 348 kts 150°
2026-05-07 08:38 -17.31164 -63.34866 10049 ft 343 kts 150°
2026-05-07 08:38 -17.33148 -63.33601 9842 ft 337 kts 151°
2026-05-07 08:38 -17.35121 -63.32342 9806 ft 325 kts 151°
2026-05-07 08:38 -17.37033 -63.31123 9417 ft 326 kts 151°
2026-05-07 08:39 -17.39004 -63.29869 8913 ft 331 kts 151°
2026-05-07 08:39 -17.40968 -63.28618 8473 ft 327 kts 151°
2026-05-07 08:39 -17.42893 -63.27389 8110 ft 321 kts 151°
2026-05-07 08:39 -17.44781 -63.26183 7775 ft 315 kts 151°
2026-05-07 08:40 -17.46636 -63.24999 7448 ft 309 kts 151°
2026-05-07 08:40 -17.48456 -63.23837 7121 ft 304 kts 151°
2026-05-07 08:40 -17.50248 -63.22694 6806 ft 299 kts 151°
2026-05-07 08:40 -17.52014 -63.21566 6500 ft 294 kts 151°
2026-05-07 08:41 -17.53749 -63.20458 6221 ft 292 kts 151°
2026-05-07 08:41 -17.55494 -63.19344 5935 ft 295 kts 150°
2026-05-07 08:41 -17.57278 -63.18206 5674 ft 306 kts 150°
2026-05-07 08:41 -17.59113 -63.17034 5371 ft 310 kts 150°
2026-05-07 08:42 -17.60788 -63.15962 5113 ft 310 kts 150°
2026-05-07 08:42 -17.62642 -63.14696 4987 ft 304 kts 139°
2026-05-07 08:42 -17.64036 -63.13050 4877 ft 302 kts 126°
2026-05-07 08:42 -17.65320 -63.11292 4745 ft 305 kts 125°
2026-05-07 08:43 -17.66613 -63.09520 4620 ft 304 kts 126°
2026-05-07 08:43 -17.67878 -63.07805 4549 ft 289 kts 126°
2026-05-07 08:43 -17.69090 -63.06181 4422 ft 276 kts 126°
2026-05-07 08:43 -17.70247 -63.04636 4321 ft 262 kts 126°
2026-05-07 08:44 -17.71343 -63.03178 4225 ft 247 kts 126°
2026-05-07 08:44 -17.72380 -63.01798 4102 ft 235 kts 125°
2026-05-07 08:44 -17.73426 -63.00501 3863 ft 230 kts 141°
2026-05-07 08:44 -17.74827 -62.99879 3733 ft 213 kts 187°
2026-05-07 08:45 -17.76219 -63.00152 3722 ft 201 kts 219°
2026-05-07 08:45 -17.77266 -63.01015 3605 ft 184 kts 248°
2026-05-07 08:45 -17.77770 -63.02141 3508 ft 160 kts 272°
2026-05-07 08:45 -17.77779 -63.03246 3465 ft 145 kts 295°
2026-05-07 08:46 -17.77224 -63.04020 3401 ft 131 kts 319°
2026-05-07 08:46 -17.76678 -63.04774 3323 ft 130 kts 312°
2026-05-07 08:46 -17.76017 -63.05409 3261 ft 127 kts 321°
2026-05-07 08:46 -17.75365 -63.05975 3189 ft 119 kts 320°
2026-05-07 08:47 -17.74738 -63.06510 3132 ft 116 kts 322°
2026-05-07 08:47 -17.74077 -63.07012 3091 ft 119 kts 324°
2026-05-07 08:47 -17.73382 -63.07504 2954 ft 121 kts 325°
2026-05-07 08:47 -17.72684 -63.07983 2802 ft 120 kts 326°
2026-05-07 08:48 -17.71983 -63.08460 2635 ft 121 kts 326°
2026-05-07 08:48 -17.71269 -63.08944 2485 ft 124 kts 326°
2026-05-07 08:48 -17.70547 -63.09432 2336 ft 125 kts 324°
2026-05-07 08:48 -17.69822 -63.09926 2165 ft 123 kts 327°
2026-05-07 08:49 -17.69094 -63.10414 2030 ft 132 kts 325°
2026-05-07 08:49 -17.68298 -63.10985 1819 ft 144 kts 329°
2026-05-07 08:49 -17.67444 -63.11534 1635 ft 143 kts 327°
2026-05-07 08:49 -17.66616 -63.12086 1460 ft 138 kts 330°
2026-05-07 08:50 -17.65804 -63.12641 1282 ft 140 kts 330°
2026-05-07 08:50 -17.65025 -63.13163 1231 ft 118 kts 326°
2026-05-07 08:50 -17.64466 -63.13541 1231 ft 78 kts 325°
2026-05-07 08:50 -17.64112 -63.13781 1227 ft 47 kts 327°
2026-05-07 08:51 -17.63998 -63.13856 1227 ft 13 kts 331°
2026-05-07 08:51 -17.63924 -63.13908 1227 ft 16 kts 312°
2026-05-07 08:51 -17.63908 -63.13982 1227 ft 8 kts 253°
2026-05-07 08:51 -17.63950 -63.14056 1229 ft 16 kts 231°
2026-05-07 08:52 -17.64035 -63.14060 1229 ft 15 kts 155°
2026-05-07 08:52 -17.64153 -63.13983 1229 ft 25 kts 145°
2026-05-07 08:52 -17.64323 -63.13874 1230 ft 31 kts 149°
2026-05-07 08:52 -17.64451 -63.13946 1230 ft 23 kts 238°
2026-05-07 08:53 -17.64551 -63.14005 1230 ft 13 kts 160°
2026-05-07 08:53 -17.64622 -63.13965 1230 ft 11 kts 148°
2026-05-07 08:53 -17.64686 -63.13916 1230 ft 14 kts 154°
2026-05-07 08:53 -17.64753 -63.13957 1230 ft 8 kts 240°
2026-05-07 08:54 -17.64758 -63.13966 1230 ft 0 kts 238°
2026-05-07 08:54 -17.64762 -63.13971 1230 ft 0 kts 238°